[Date Prev][Date Next][Thread Prev][Thread Next] - [Date Index][Thread Index][Author Index]
2 Line ISS Keps 8-16
- Subject: [sarex] 2 Line ISS Keps 8-16
- From: "Dave Larsen PhD" <doc@xxxxxxxxxxx>
- Date: Fri, 16 Aug 2002 06:32:23 -0700
ISS
1 25544U 98067A 02228.46854167 .00034660 00000-0 45961-3 0 500
2 25544 51.6374 110.4235 0017470 145.7918 217.7363 15.57746154213435
----
Via the sarex mailing list at AMSAT.ORG courtesy of AMSAT-NA.
To unsubscribe, send "unsubscribe sarex" to Majordomo@amsat.org
AMSAT Home